Menu Close Menu
Station Historical Data
Daily Summary for July 19, 2017 Units:  Metric    English   Both
« Previous Day
Next Day »
Daily Weekly Monthly Yearly Custom
  High: Low: Average:
Temperature: 32.9 °C 22.3 °C 26.7 °C
Dew Point: 23.6 °C 19.3 °C 20.8 °C
Humidity: 89% 52% 72%
Wind Speed: 13.2km/h 0km/h 10.5km/h
Wind Gust: 13.2km/h - -
Wind- - ESE
Pressure: 1020.9 hPa 1017.2 hPa -
Precipitation: 0 mm    
Historical Graphs
 
 
Tabular Data for July 19, 2017
Time Temperature Dew Point Pressure Wind Wind Speed Wind Gust Humidity Rainfall Rate (Hourly) solar Conditions
00:03 23.8 °C 20.4 °C 1019.5 hPa NNE 13.2 km/h   81% 0 mm WeatherDisplay:10.37 W/m2 BKN
00:04 23.8 °C 20.3 °C 1019.5 hPa NNE 13.2 km/h   81% 0 mm WeatherDisplay:10.37 W/m2 BKN
00:09 23.7 °C 20.2 °C 1019.5 hPa NNE 13.2 km/h   81% 0 mm WeatherDisplay:10.37 W/m2 BKN
00:14 23.6 °C 20.1 °C 1019.5 hPa NNE 13.2 km/h   81% 0 mm WeatherDisplay:10.37 W/m2 BKN
00:19 23.5 °C 20.1 °C 1019.5 hPa NNE 13.2 km/h   81% 0 mm WeatherDisplay:10.37 W/m2 BKN
00:24 23.4 °C 19.9 °C 1019.5 hPa NNE 13.2 km/h   81% 0 mm WeatherDisplay:10.37 W/m2 CLR
00:29 23.3 °C 19.9 °C 1019.5 hPa NNE 13.2 km/h   81% 0 mm WeatherDisplay:10.37 W/m2 CLR
00:34 23.3 °C 20.1 °C 1019.5 hPa NNE 13.2 km/h   82% 0 mm WeatherDisplay:10.37 W/m2 CLR
00:39 23.2 °C 20 °C 1019.5 hPa NNE 13.2 km/h   82% 0 mm WeatherDisplay:10.37 W/m2 CLR
00:44 23.2 °C 20.1 °C 1019.5 hPa NNE 13.2 km/h   83% 0 mm WeatherDisplay:10.37 W/m2 CLR
00:49 23.1 °C 20 °C 1019.2 hPa NNE 13.2 km/h   83% 0 mm WeatherDisplay:10.37 W/m2 CLR
00:55 22.9 °C 19.9 °C 1019.2 hPa NNE 13.2 km/h   83% 0 mm WeatherDisplay:10.37 W/m2 CLR
01:00 22.9 °C 20.1 °C 1019.2 hPa NNE 13.2 km/h   84% 0 mm WeatherDisplay:10.37 W/m2 CLR
01:05 22.9 °C 20.1 °C 1019.5 hPa Calm     84% 0 mm WeatherDisplay:10.37 W/m2 CLR
01:10 22.9 °C 19.8 °C 1019.2 hPa Calm     83% 0 mm WeatherDisplay:10.37 W/m2 CLR
01:15 22.9 °C 19.9 °C 1019.2 hPa Calm     83% 0 mm WeatherDisplay:10.37 W/m2 CLR
01:20 22.9 °C 19.9 °C 1019.5 hPa NW 13.2 km/h   83% 0 mm WeatherDisplay:10.37 W/m2 CLR
01:25 22.6 °C 19.6 °C 1019.5 hPa Calm     83% 0 mm WeatherDisplay:10.37 W/m2 CLR
01:30 22.3 °C 19.3 °C 1019.2 hPa Calm     83% 0 mm WeatherDisplay:10.37 W/m2 CLR
01:35 22.3 °C 19.3 °C 1019.5 hPa Calm     83% 0 mm WeatherDisplay:10.37 W/m2 CLR
01:40 22.3 °C 19.3 °C 1019.2 hPa Calm     83% 0 mm WeatherDisplay:10.37 W/m2 CLR
01:45 22.3 °C 19.3 °C 1019.5 hPa Calm     83% 0 mm WeatherDisplay:10.37 W/m2 CLR
01:50 22.3 °C 19.3 °C 1019.5 hPa Calm     83% 0 mm WeatherDisplay:10.37 W/m2 CLR
01:55 22.3 °C 19.3 °C 1019.2 hPa Calm     83% 0 mm WeatherDisplay:10.37 W/m2 CLR
02:00 22.3 °C 19.3 °C 1019.2 hPa North 13.2 km/h   83% 0 mm WeatherDisplay:10.37 W/m2 CLR
02:04 22.3 °C 19.3 °C 1019.2 hPa North 13.2 km/h   83% 0 mm WeatherDisplay:10.37 W/m2 CLR
02:09 22.3 °C 19.3 °C 1019.5 hPa North 13.2 km/h   83% 0 mm WeatherDisplay:10.37 W/m2 CLR
02:14 22.3 °C 19.3 °C 1019.5 hPa North 13.2 km/h   83% 0 mm WeatherDisplay:10.37 W/m2 CLR
02:19 22.3 °C 19.3 °C 1019.5 hPa North 13.2 km/h   83% 0 mm WeatherDisplay:10.37 W/m2 CLR
02:24 22.3 °C 19.3 °C 1019.5 hPa North 13.2 km/h   83% 0 mm WeatherDisplay:10.37 W/m2 CLR
02:29 22.3 °C 19.3 °C 1019.5 hPa North 13.2 km/h   83% 0 mm WeatherDisplay:10.37 W/m2 CLR
02:35 22.3 °C 19.3 °C 1019.5 hPa North 13.2 km/h   83% 0 mm WeatherDisplay:10.37 W/m2 CLR
02:40 22.3 °C 19.3 °C 1019.2 hPa Calm     83% 0 mm WeatherDisplay:10.37 W/m2 CLR
02:45 22.3 °C 19.3 °C 1019.2 hPa Calm     83% 0 mm WeatherDisplay:10.37 W/m2 CLR
02:50 22.3 °C 19.3 °C 1019.2 hPa Calm     83% 0 mm WeatherDisplay:10.37 W/m2 CLR
02:52 22.3 °C 19.3 °C 1019.2 hPa North 13.2 km/h   83% 0 mm WeatherDisplay:10.37 W/m2 CLR
02:57 22.3 °C 19.3 °C 1019.2 hPa North 13.2 km/h   83% 0 mm WeatherDisplay:10.37 W/m2 CLR
03:02 22.3 °C 19.3 °C 1019.2 hPa North 13.2 km/h   83% 0 mm WeatherDisplay:10.37 W/m2 CLR
03:07 22.3 °C 19.3 °C 1019.2 hPa North 13.2 km/h   83% 0 mm WeatherDisplay:10.37 W/m2 CLR
03:12 22.3 °C 19.3 °C 1019.2 hPa North 13.2 km/h   83% 0 mm WeatherDisplay:10.37 W/m2 CLR
03:17 22.3 °C 19.3 °C 1018.8 hPa North 13.2 km/h   83% 0 mm WeatherDisplay:10.37 W/m2 CLR
03:22 22.3 °C 19.3 °C 1019.2 hPa North 13.2 km/h   83% 0 mm WeatherDisplay:10.37 W/m2 CLR
03:27 22.3 °C 19.3 °C 1019.2 hPa North 13.2 km/h   83% 0 mm WeatherDisplay:10.37 W/m2 CLR
03:32 22.3 °C 19.3 °C 1018.8 hPa North 13.2 km/h   83% 0 mm WeatherDisplay:10.37 W/m2 CLR
03:37 22.3 °C 19.3 °C 1018.8 hPa North 13.2 km/h   83% 0 mm WeatherDisplay:10.37 W/m2 CLR
03:42 22.3 °C 19.3 °C 1018.8 hPa North 13.2 km/h   83% 0 mm WeatherDisplay:10.37 W/m2 CLR
03:47 22.3 °C 19.3 °C 1018.8 hPa North 13.2 km/h   83% 0 mm WeatherDisplay:10.37 W/m2 CLR
03:52 22.3 °C 19.3 °C 1018.8 hPa North 13.2 km/h   83% 0 mm WeatherDisplay:10.37 W/m2 CLR
03:57 22.3 °C 19.3 °C 1019.2 hPa North 13.2 km/h   83% 0 mm WeatherDisplay:10.37 W/m2 CLR
04:02 22.3 °C 19.3 °C 1019.2 hPa North 13.2 km/h   83% 0 mm WeatherDisplay:10.37 W/m2 CLR
04:07 22.3 °C 19.3 °C 1018.8 hPa North 13.2 km/h   83% 0 mm WeatherDisplay:10.37 W/m2 CLR
04:12 22.3 °C 19.3 °C 1019.2 hPa North 13.2 km/h   83% 0 mm WeatherDisplay:10.37 W/m2 CLR
04:17 22.3 °C 19.3 °C 1019.2 hPa North 13.2 km/h   83% 0 mm WeatherDisplay:10.37 W/m2 CLR
04:22 22.3 °C 19.3 °C 1019.2 hPa North 13.2 km/h   83% 0 mm WeatherDisplay:10.37 W/m2 CLR
04:24 22.3 °C 19.3 °C 1019.2 hPa North 13.2 km/h   83% 0 mm WeatherDisplay:10.37 W/m2 CLR
04:30 22.3 °C 19.3 °C 1019.2 hPa North 13.2 km/h   83% 0 mm WeatherDisplay:10.37 W/m2 CLR
04:35 22.3 °C 19.3 °C 1019.2 hPa Calm     83% 0 mm WeatherDisplay:10.37 W/m2 CLR
04:40 22.3 °C 19.3 °C 1019.2 hPa Calm     83% 0 mm WeatherDisplay:10.37 W/m2 CLR
04:45 22.3 °C 19.3 °C 1019.2 hPa Calm     83% 0 mm WeatherDisplay:10.37 W/m2 CLR
04:50 22.3 °C 19.3 °C 1019.2 hPa North 13.2 km/h   83% 0 mm WeatherDisplay:10.37 W/m2 CLR
04:55 22.3 °C 19.3 °C 1019.2 hPa Calm     83% 0 mm WeatherDisplay:10.37 W/m2 CLR
05:00 22.3 °C 19.3 °C 1019.2 hPa Calm     83% 0 mm WeatherDisplay:10.37 W/m2 CLR
05:05 22.3 °C 19.3 °C 1019.2 hPa Calm     83% 0 mm WeatherDisplay:10.37 W/m2 CLR
05:10 22.3 °C 19.3 °C 1019.2 hPa North 13.2 km/h   83% 0 mm WeatherDisplay:10.37 W/m2 CLR
05:15 22.3 °C 19.3 °C 1019.2 hPa Calm     83% 0 mm WeatherDisplay:10.37 W/m2 CLR
05:20 22.3 °C 19.3 °C 1019.2 hPa North 13.2 km/h   83% 0 mm WeatherDisplay:10.37 W/m2 CLR
05:25 22.3 °C 19.3 °C 1019.2 hPa Calm     83% 0 mm WeatherDisplay:10.37 W/m2 CLR
05:30 22.3 °C 19.3 °C 1019.2 hPa Calm     83% 0 mm WeatherDisplay:10.37 W/m2 CLR
05:35 22.3 °C 19.3 °C 1019.5 hPa North 13.2 km/h   83% 0 mm WeatherDisplay:10.37 W/m2 CLR
05:40 22.3 °C 19.3 °C 1019.5 hPa Calm     83% 0 mm WeatherDisplay:10.37 W/m2 CLR
05:45 22.3 °C 19.3 °C 1019.5 hPa Calm     83% 0 mm WeatherDisplay:10.37 W/m2 CLR
05:50 22.3 °C 19.3 °C 1019.5 hPa Calm     83% 0 mm WeatherDisplay:10.37 W/m2 CLR
05:55 22.3 °C 19.3 °C 1019.5 hPa North 13.2 km/h   83% 0 mm WeatherDisplay:10.37 W/m2 CLR
06:00 22.3 °C 19.3 °C 1019.5 hPa Calm     83% 0 mm WeatherDisplay:10.37 W/m2 CLR
06:05 22.3 °C 19.3 °C 1019.9 hPa Calm     83% 0 mm WeatherDisplay:10.37 W/m2 CLR
06:10 22.3 °C 19.3 °C 1019.9 hPa Calm     83% 0 mm WeatherDisplay:10.37 W/m2 CLR
06:15 22.3 °C 19.3 °C 1019.9 hPa Calm     83% 0 mm WeatherDisplay:10.37 W/m2 CLR
06:20 22.3 °C 19.3 °C 1019.9 hPa North 13.2 km/h   83% 0 mm WeatherDisplay:10.37 W/m2 CLR
06:25 22.3 °C 19.3 °C 1019.9 hPa Calm     83% 0 mm WeatherDisplay:10.37 W/m2 CLR
06:30 22.3 °C 19.3 °C 1019.9 hPa Calm     83% 0 mm WeatherDisplay:10.37 W/m2 CLR
06:35 22.3 °C 19.3 °C 1019.9 hPa Calm     83% 0 mm WeatherDisplay:10.37 W/m2 CLR
06:40 22.3 °C 19.3 °C 1019.9 hPa North 13.2 km/h   83% 0 mm WeatherDisplay:10.37 W/m2 CLR
06:45 22.3 °C 19.3 °C 1019.9 hPa North 13.2 km/h   83% 0 mm WeatherDisplay:10.37 W/m2 CLR
06:50 22.3 °C 19.3 °C 1020.2 hPa North 13.2 km/h   83% 0 mm WeatherDisplay:10.37 W/m2 CLR
06:55 22.3 °C 19.3 °C 1020.2 hPa North 13.2 km/h   83% 0 mm WeatherDisplay:10.37 W/m2 CLR
07:00 22.3 °C 19.3 °C 1020.2 hPa North 13.2 km/h   83% 0 mm WeatherDisplay:10.37 W/m2 CLR
07:05 22.3 °C 19.3 °C 1020.2 hPa North 13.2 km/h   83% 0 mm WeatherDisplay:10.37 W/m2 CLR
07:10 22.3 °C 19.3 °C 1020.2 hPa North 13.2 km/h   83% 0 mm WeatherDisplay:10.37 W/m2 CLR
07:15 22.3 °C 19.3 °C 1020.2 hPa North 13.2 km/h   83% 0 mm WeatherDisplay:10.37 W/m2 CLR
07:20 22.3 °C 19.3 °C 1020.2 hPa North 13.2 km/h   83% 0 mm WeatherDisplay:10.37 W/m2 FEW
07:25 22.3 °C 19.3 °C 1020.2 hPa North 13.2 km/h   83% 0 mm WeatherDisplay:10.37 W/m2 FEW
07:27 22.3 °C 19.3 °C 1020.2 hPa North 13.2 km/h   83% 0 mm WeatherDisplay:10.37 W/m2 FEW
07:32 22.3 °C 19.3 °C 1020.2 hPa North 13.2 km/h   83% 0 mm WeatherDisplay:10.37 W/m2 FEW
07:37 22.3 °C 19.3 °C 1020.2 hPa North 13.2 km/h   83% 0 mm WeatherDisplay:10.37 W/m2 FEW
07:42 22.3 °C 19.3 °C 1020.5 hPa North 13.2 km/h   83% 0 mm WeatherDisplay:10.37 W/m2 FEW
07:47 22.3 °C 19.3 °C 1020.5 hPa North 13.2 km/h   83% 0 mm WeatherDisplay:10.37 W/m2 FEW
07:52 22.3 °C 19.3 °C 1020.5 hPa North 13.2 km/h   83% 0 mm WeatherDisplay:10.37 W/m2 FEW
07:57 22.3 °C 19.3 °C 1020.5 hPa North 13.2 km/h   83% 0 mm WeatherDisplay:10.37 W/m2 FEW
08:03 22.3 °C 19.3 °C 1020.5 hPa North 13.2 km/h   83% 0 mm WeatherDisplay:10.37 W/m2 FEW
08:08 22.3 °C 19.3 °C 1020.5 hPa North 13.2 km/h   83% 0 mm WeatherDisplay:10.37 W/m2 FEW
08:13 22.3 °C 19.3 °C 1020.5 hPa North 13.2 km/h   83% 0 mm WeatherDisplay:10.37 W/m2 FEW
08:18 22.3 °C 19.3 °C 1020.5 hPa North 13.2 km/h   83% 0 mm WeatherDisplay:10.37 W/m2 FEW
08:23 22.3 °C 19.3 °C 1020.5 hPa North 13.2 km/h   83% 0 mm WeatherDisplay:10.37 W/m2 FEW
08:28 22.3 °C 19.3 °C 1020.5 hPa North 13.2 km/h   83% 0 mm WeatherDisplay:10.37 W/m2 FEW
08:33 22.3 °C 19.3 °C 1020.5 hPa North 13.2 km/h   83% 0 mm WeatherDisplay:10.37 W/m2 FEW
08:38 23.3 °C 21.4 °C 1020.5 hPa NNW 13.2 km/h   89% 0 mm WeatherDisplay:10.37 W/m2 FEW
08:43 23.5 °C 21.4 °C 1020.5 hPa NNW 13.2 km/h   88% 0 mm WeatherDisplay:10.37 W/m2 FEW
08:48 23.7 °C 21.6 °C 1020.5 hPa NNW 13.2 km/h   88% 0 mm WeatherDisplay:10.37 W/m2 FEW
08:53 23.9 °C 21.7 °C 1020.5 hPa NNW 13.2 km/h   87% 0 mm WeatherDisplay:10.37 W/m2 FEW
08:58 24.2 °C 21.9 °C 1020.5 hPa NNW 13.2 km/h   87% 0 mm WeatherDisplay:10.37 W/m2 FEW
09:03 24.4 °C 21.9 °C 1020.5 hPa NNW 13.2 km/h   86% 0 mm WeatherDisplay:10.37 W/m2 FEW
09:08 24.6 °C 21.9 °C 1020.5 hPa NNW 13.2 km/h   85% 0 mm WeatherDisplay:10.37 W/m2 FEW
09:13 24.8 °C 21.9 °C 1020.5 hPa NNW 13.2 km/h   84% 0 mm WeatherDisplay:10.37 W/m2 FEW
09:18 25.1 °C 21.6 °C 1020.5 hPa WSW 13.2 km/h 13.2 km/h 81% 0 mm WeatherDisplay:10.37 W/m2 FEW
09:23 25.3 °C 21.8 °C 1020.5 hPa WSW 13.2 km/h 13.2 km/h 81% 0 mm WeatherDisplay:10.37 W/m2 CLR
09:28 25.6 °C 22.1 °C 1020.2 hPa WSW 13.2 km/h   81% 0 mm WeatherDisplay:10.37 W/m2 CLR
09:33 25.8 °C 22.3 °C 1020.5 hPa WSW 13.2 km/h   81% 0 mm WeatherDisplay:10.37 W/m2 CLR
09:38 26.1 °C 22.6 °C 1020.5 hPa WSW 13.2 km/h 13.2 km/h 81% 0 mm WeatherDisplay:10.37 W/m2 CLR
09:44 26.3 °C 22.1 °C 1020.5 hPa SW 13.2 km/h 13.2 km/h 78% 0 mm WeatherDisplay:10.37 W/m2 CLR
09:49 26.5 °C 22.6 °C 1020.5 hPa SW 13.2 km/h   79% 0 mm WeatherDisplay:10.37 W/m2 CLR
09:54 26.7 °C 22.5 °C 1020.5 hPa SW 13.2 km/h   78% 0 mm WeatherDisplay:10.37 W/m2 CLR
09:59 26.8 °C 22.7 °C 1020.5 hPa SW 13.2 km/h   78% 0 mm WeatherDisplay:10.37 W/m2 CLR
10:04 27 °C 22.6 °C 1020.5 hPa SW 13.2 km/h   77% 0 mm WeatherDisplay:10.37 W/m2 CLR
10:09 27.3 °C 23.1 °C 1020.5 hPa WNW 13.2 km/h 13.2 km/h 78% 0 mm WeatherDisplay:10.37 W/m2 CLR
10:14 27.7 °C 23.1 °C 1020.5 hPa WNW 13.2 km/h   76% 0 mm WeatherDisplay:10.37 W/m2 CLR
10:19 28.2 °C 23.6 °C 1020.5 hPa WNW 13.2 km/h   76% 0 mm WeatherDisplay:10.37 W/m2 CLR
10:24 28.6 °C 23 °C 1020.5 hPa SW 13.2 km/h 13.2 km/h 72% 0 mm WeatherDisplay:10.37 W/m2 CLR
10:29 28.8 °C 23.1 °C 1020.5 hPa SW 13.2 km/h 13.2 km/h 71% 0 mm WeatherDisplay:10.37 W/m2 CLR
10:34 29.1 °C 23.3 °C 1020.5 hPa SW 13.2 km/h 13.2 km/h 71% 0 mm WeatherDisplay:10.37 W/m2 CLR
10:39 29.2 °C 22.9 °C 1020.5 hPa NNE 13.2 km/h   69% 0 mm WeatherDisplay:10.37 W/m2 CLR
10:44 29.4 °C 23.6 °C 1020.5 hPa NNW 13.2 km/h   71% 0 mm WeatherDisplay:10.37 W/m2 CLR
10:49 29.6 °C 23.6 °C 1020.5 hPa West 13.2 km/h   70% 0 mm WeatherDisplay:10.37 W/m2 CLR
10:54 29.8 °C 23.5 °C 1020.5 hPa West 13.2 km/h   69% 0 mm WeatherDisplay:10.37 W/m2 CLR
10:59 30 °C 23.4 °C 1020.5 hPa NE 13.2 km/h 13.2 km/h 68% 0 mm WeatherDisplay:10.37 W/m2 CLR
11:04 29.9 °C 22.9 °C 1020.5 hPa SW 13.2 km/h 13.2 km/h 66% 0 mm WeatherDisplay:10.37 W/m2 CLR
11:09 30 °C 22.9 °C 1020.5 hPa NE 13.2 km/h   66% 0 mm WeatherDisplay:10.37 W/m2 CLR
11:15 30.1 °C 22.8 °C 1020.5 hPa ENE 13.2 km/h 13.2 km/h 65% 0 mm WeatherDisplay:10.37 W/m2 CLR
11:20 30.1 °C 22.8 °C 1020.9 hPa Calm   4.8 km/h 65% 0 mm WeatherDisplay:10.37 W/m2 FEW
11:25 30.1 °C 22.6 °C 1020.5 hPa Calm   3.2 km/h 64% 0 mm WeatherDisplay:10.37 W/m2 FEW
11:30 30.1 °C 23.3 °C 1020.5 hPa Calm   3.2 km/h 67% 0 mm WeatherDisplay:10.37 W/m2 FEW
11:35 30.2 °C 22.8 °C 1020.5 hPa NNW 13.2 km/h   65% 0 mm WeatherDisplay:10.37 W/m2 FEW
11:40 30.2 °C 22.6 °C 1020.5 hPa East 13.2 km/h   64% 0 mm WeatherDisplay:10.37 W/m2 FEW
11:45 30.2 °C 22.3 °C 1020.5 hPa SW 13.2 km/h 13.2 km/h 63% 0 mm WeatherDisplay:10.37 W/m2 FEW
11:50 30.2 °C 22.6 °C 1020.5 hPa WNW 13.2 km/h   64% 0 mm WeatherDisplay:10.37 W/m2 FEW
11:55 30.2 °C 22.1 °C 1020.5 hPa SSW 13.2 km/h 13.2 km/h 62% 0 mm WeatherDisplay:10.37 W/m2 FEW
12:00 30.2 °C 22.7 °C 1020.5 hPa SSW 13.2 km/h 13.2 km/h 64% 0 mm WeatherDisplay:10.37 W/m2 FEW
12:05 30.2 °C 22.4 °C 1020.5 hPa ENE 13.2 km/h   63% 0 mm WeatherDisplay:10.37 W/m2 FEW
12:10 30.2 °C 22.1 °C 1020.5 hPa East 13.2 km/h 13.2 km/h 62% 0 mm WeatherDisplay:10.37 W/m2 FEW
12:15 30.4 °C 22.6 °C 1020.5 hPa WNW 13.2 km/h 13.2 km/h 63% 0 mm WeatherDisplay:10.37 W/m2 FEW
12:20 30.6 °C 22.2 °C 1020.5 hPa NNW 13.2 km/h   61% 0 mm WeatherDisplay:10.37 W/m2 SCT
12:25 30.7 °C 22.6 °C 1020.5 hPa WNW 13.2 km/h 13.2 km/h 62% 0 mm WeatherDisplay:10.37 W/m2 SCT
12:26 30.8 °C 22.4 °C 1020.2 hPa WNW 13.2 km/h 13.2 km/h 61% 0 mm WeatherDisplay:10.37 W/m2 SCT
12:31 30.7 °C 22.1 °C 1020.2 hPa WSW 13.2 km/h   60% 0 mm WeatherDisplay:10.37 W/m2 SCT
12:36 30.7 °C 22 °C 1020.2 hPa NNE 13.2 km/h 13.2 km/h 60% 0 mm WeatherDisplay:10.37 W/m2 SCT
12:41 30.8 °C 22.2 °C 1020.2 hPa WNW 13.2 km/h   60% 0 mm WeatherDisplay:10.37 W/m2 SCT
12:46 31.2 °C 22.3 °C 1020.2 hPa West 13.2 km/h 13.2 km/h 59% 0 mm WeatherDisplay:10.37 W/m2 SCT
12:51 31.4 °C 21.8 °C 1019.9 hPa East 13.2 km/h   57% 0 mm WeatherDisplay:10.37 W/m2 SCT
12:57 31.6 °C 22.3 °C 1019.9 hPa East 13.2 km/h 13.2 km/h 58% 0 mm WeatherDisplay:10.37 W/m2 SCT
13:02 31.9 °C 22.6 °C 1019.9 hPa West 13.2 km/h 13.2 km/h 58% 0 mm WeatherDisplay:10.37 W/m2 SCT
13:07 32.2 °C 21.4 °C 1019.9 hPa SW 13.2 km/h 13.2 km/h 53% 0 mm WeatherDisplay:10.37 W/m2 SCT
13:12 32.6 °C 21.7 °C 1019.9 hPa West 13.2 km/h 13.2 km/h 53% 0 mm WeatherDisplay:10.37 W/m2 SCT
13:17 32.9 °C 22.4 °C 1019.9 hPa SSW 13.2 km/h 13.2 km/h 54% 0 mm WeatherDisplay:10.37 W/m2 SCT
13:22 32.9 °C 22.1 °C 1019.9 hPa SW 13.2 km/h 13.2 km/h 53% 0 mm WeatherDisplay:10.37 W/m2 SCT
13:27 32.5 °C 22.3 °C 1019.5 hPa West 13.2 km/h 13.2 km/h 55% 0 mm WeatherDisplay:10.37 W/m2 SCT
13:32 32.4 °C 22.8 °C 1019.5 hPa WNW 13.2 km/h   57% 0 mm WeatherDisplay:10.37 W/m2 SCT
13:37 32.3 °C 23.3 °C 1019.5 hPa WNW 13.2 km/h   59% 0 mm WeatherDisplay:10.37 W/m2 SCT
13:42 32.3 °C 22.1 °C 1019.5 hPa SW 13.2 km/h   55% 0 mm WeatherDisplay:10.37 W/m2 SCT
13:47 32.3 °C 21.2 °C 1019.5 hPa West 13.2 km/h   52% 0 mm WeatherDisplay:10.37 W/m2 SCT
13:52 32.3 °C 21.5 °C 1019.5 hPa ENE 13.2 km/h   53% 0 mm WeatherDisplay:10.37 W/m2 SCT
13:57 32.2 °C 21.4 °C 1019.5 hPa WNW 13.2 km/h   53% 0 mm WeatherDisplay:10.37 W/m2 SCT
14:02 32.2 °C 21.1 °C 1019.5 hPa WNW 13.2 km/h   52% 0 mm WeatherDisplay:10.37 W/m2 SCT
14:07 32.1 °C 21 °C 1019.2 hPa WSW 13.2 km/h 13.2 km/h 52% 0 mm WeatherDisplay:10.37 W/m2 SCT
14:13 32.2 °C 22.3 °C 1019.2 hPa WSW 13.2 km/h 13.2 km/h 56% 0 mm WeatherDisplay:10.37 W/m2 SCT
14:18 32.1 °C 21.6 °C 1019.2 hPa SW 13.2 km/h   54% 0 mm WeatherDisplay:10.37 W/m2 SCT
14:23 32.3 °C 22.4 °C 1019.2 hPa SW 13.2 km/h   56% 0 mm WeatherDisplay:10.37 W/m2 SCT
14:28 32.2 °C 22.3 °C 1019.2 hPa West 13.2 km/h 13.2 km/h 56% 0 mm WeatherDisplay:10.37 W/m2 SCT
14:33 32 °C 22.4 °C 1019.2 hPa West 13.2 km/h   57% 0 mm WeatherDisplay:10.37 W/m2 SCT
14:38 31.9 °C 21.7 °C 1019.2 hPa WSW 13.2 km/h   55% 0 mm WeatherDisplay:10.37 W/m2 SCT
14:43 32.1 °C 23.1 °C 1018.8 hPa WSW 13.2 km/h 13.2 km/h 59% 0 mm WeatherDisplay:10.37 W/m2 SCT
14:48 31.9 °C 22.1 °C 1018.8 hPa SW 13.2 km/h 13.2 km/h 56% 0 mm WeatherDisplay:10.37 W/m2 SCT
14:53 31.7 °C 22.4 °C 1018.8 hPa SW 13.2 km/h   58% 0 mm WeatherDisplay:10.37 W/m2 SCT
14:58 31.7 °C 22.4 °C 1018.8 hPa SW 13.2 km/h 13.2 km/h 58% 0 mm WeatherDisplay:10.37 W/m2 SCT
15:03 31.6 °C 21.4 °C 1018.8 hPa North 13.2 km/h 13.2 km/h 55% 0 mm WeatherDisplay:10.37 W/m2 SCT
15:08 31.6 °C 20.5 °C 1018.8 hPa West 13.2 km/h 13.2 km/h 52% 0 mm WeatherDisplay:10.37 W/m2 SCT
15:13 31.7 °C 21.8 °C 1018.8 hPa NNW 13.2 km/h 13.2 km/h 56% 0 mm WeatherDisplay:10.37 W/m2 SCT
15:18 31.7 °C 21.3 °C 1018.8 hPa SSW 13.2 km/h 13.2 km/h 54% 0 mm WeatherDisplay:10.37 W/m2 SCT
15:23 31.5 °C 22.2 °C 1018.5 hPa NW 13.2 km/h   58% 0 mm WeatherDisplay:10.37 W/m2 BKN
15:28 31.3 °C 21.5 °C 1018.5 hPa WSW 13.2 km/h   56% 0 mm WeatherDisplay:10.37 W/m2 BKN
15:33 31.4 °C 21.9 °C 1018.5 hPa SW 13.2 km/h 13.2 km/h 57% 0 mm WeatherDisplay:10.37 W/m2 BKN
15:38 31.4 °C 21.3 °C 1018.5 hPa North 13.2 km/h   55% 0 mm WeatherDisplay:10.37 W/m2 BKN
15:43 31.4 °C 20.7 °C 1018.5 hPa West 13.2 km/h   53% 0 mm WeatherDisplay:10.37 W/m2 BKN
15:48 31.3 °C 20.9 °C 1018.5 hPa ENE 13.2 km/h   54% 0 mm WeatherDisplay:10.37 W/m2 BKN
15:53 31.3 °C 21.5 °C 1018.2 hPa ENE 13.2 km/h   56% 0 mm WeatherDisplay:10.37 W/m2 BKN
15:58 31.3 °C 21.2 °C 1018.2 hPa NNW 13.2 km/h 13.2 km/h 55% 0 mm WeatherDisplay:10.37 W/m2 BKN
16:04 31.4 °C 21.8 °C 1018.2 hPa NE 13.2 km/h 13.2 km/h 57% 0 mm WeatherDisplay:10.37 W/m2 BKN
16:09 31.3 °C 21.5 °C 1018.2 hPa ENE 13.2 km/h 13.2 km/h 56% 0 mm WeatherDisplay:10.37 W/m2 BKN
16:14 31.2 °C 21.4 °C 1018.2 hPa SSW 13.2 km/h   56% 0 mm WeatherDisplay:10.37 W/m2 BKN
16:19 31.1 °C 21 °C 1018.2 hPa SW 13.2 km/h 13.2 km/h 55% 0 mm WeatherDisplay:10.37 W/m2 BKN
16:24 31.2 °C 20.8 °C 1017.8 hPa NW 13.2 km/h   54% 0 mm WeatherDisplay:10.37 W/m2 BKN
16:29 31.2 °C 21.1 °C 1017.8 hPa West 13.2 km/h 13.2 km/h 55% 0 mm WeatherDisplay:10.37 W/m2 BKN
16:34 31.2 °C 21.9 °C 1017.8 hPa West 13.2 km/h   58% 0 mm WeatherDisplay:10.37 W/m2 BKN
16:39 31.2 °C 20.8 °C 1017.8 hPa West 13.2 km/h 13.2 km/h 54% 0 mm WeatherDisplay:10.37 W/m2 BKN
16:44 31.3 °C 21.4 °C 1017.8 hPa West 13.2 km/h   56% 0 mm WeatherDisplay:10.37 W/m2 BKN
16:49 31.3 °C 20.6 °C 1017.8 hPa West 13.2 km/h   53% 0 mm WeatherDisplay:10.37 W/m2 BKN
16:54 31.4 °C 20.9 °C 1017.8 hPa West 13.2 km/h 13.2 km/h 54% 0 mm WeatherDisplay:10.37 W/m2 BKN
16:59 31.5 °C 21.1 °C 1017.8 hPa WNW 13.2 km/h 13.2 km/h 54% 0 mm WeatherDisplay:10.37 W/m2 BKN
17:05 31.5 °C 21.4 °C 1017.5 hPa WNW 13.2 km/h   55% 0 mm WeatherDisplay:10.37 W/m2 BKN
17:10 31.6 °C 21.4 °C 1017.8 hPa Calm   1.6 km/h 55% 0 mm WeatherDisplay:10.37 W/m2 BKN
17:15 31.7 °C 21.3 °C 1017.5 hPa Calm   1.6 km/h 54% 0 mm WeatherDisplay:10.37 W/m2 BKN
17:20 32 °C 21.6 °C 1017.5 hPa Calm   1.6 km/h 54% 0 mm WeatherDisplay:10.37 W/m2 SCT
17:25 32.2 °C 22.3 °C 1017.5 hPa North 13.2 km/h   56% 0 mm WeatherDisplay:10.37 W/m2 SCT
17:30 32.2 °C 21.4 °C 1017.5 hPa NE 13.2 km/h 13.2 km/h 53% 0 mm WeatherDisplay:10.37 W/m2 SCT
17:35 32.1 °C 22.2 °C 1017.5 hPa Calm   1.6 km/h 56% 0 mm WeatherDisplay:10.37 W/m2 SCT
17:40 31.8 °C 21.9 °C 1017.5 hPa Calm   1.6 km/h 56% 0 mm WeatherDisplay:10.37 W/m2 SCT
17:45 31.6 °C 21.4 °C 1017.5 hPa WSW 13.2 km/h 13.2 km/h 55% 0 mm WeatherDisplay:10.37 W/m2 SCT
17:50 31.5 °C 21.7 °C 1017.2 hPa Calm     56% 0 mm WeatherDisplay:10.37 W/m2 SCT
17:55 31.4 °C 21.8 °C 1017.5 hPa North 13.2 km/h 13.2 km/h 57% 0 mm WeatherDisplay:10.37 W/m2 SCT
18:00 31.3 °C 22 °C 1017.5 hPa NE 13.2 km/h   58% 0 mm WeatherDisplay:10.37 W/m2 SCT
18:05 31.2 °C 21.6 °C 1017.5 hPa Calm   1.6 km/h 57% 0 mm WeatherDisplay:10.37 W/m2 SCT
18:10 31.2 °C 21.6 °C 1017.5 hPa Calm   3.2 km/h 57% 0 mm WeatherDisplay:10.37 W/m2 SCT
18:15 31.4 °C 21.2 °C 1017.5 hPa Calm     55% 0 mm WeatherDisplay:10.37 W/m2 SCT
18:20 31.4 °C 20.9 °C 1017.5 hPa Calm   1.6 km/h 54% 0 mm WeatherDisplay:10.37 W/m2 SCT
18:25 31.2 °C 20.8 °C 1017.5 hPa Calm   1.6 km/h 54% 0 mm WeatherDisplay:10.37 W/m2 SCT
18:30 31.1 °C 20.7 °C 1017.5 hPa Calm     54% 0 mm WeatherDisplay:10.37 W/m2 SCT
18:35 30.9 °C 20.8 °C 1017.5 hPa Calm   1.6 km/h 55% 0 mm WeatherDisplay:10.37 W/m2 SCT
18:40 30.7 °C 21.4 °C 1017.5 hPa Calm     58% 0 mm WeatherDisplay:10.37 W/m2 SCT
18:45 30.4 °C 20.3 °C 1017.5 hPa Calm   1.6 km/h 55% 0 mm WeatherDisplay:10.37 W/m2 SCT
18:50 30.2 °C 19.3 °C 1017.5 hPa Calm   1.6 km/h 52% 0 mm WeatherDisplay:10.37 W/m2 SCT
18:55 30.1 °C 19.8 °C 1017.5 hPa Calm   1.6 km/h 54% 0 mm WeatherDisplay:10.37 W/m2 SCT
19:00 29.9 °C 19.6 °C 1017.5 hPa North 13.2 km/h   54% 0 mm WeatherDisplay:10.37 W/m2 SCT
19:05 29.8 °C 19.8 °C 1017.5 hPa Calm     55% 0 mm WeatherDisplay:10.37 W/m2 SCT
19:10 29.7 °C 20.3 °C 1017.5 hPa Calm     57% 0 mm WeatherDisplay:10.37 W/m2 SCT
19:15 29.4 °C 20.3 °C 1017.5 hPa Calm     58% 0 mm WeatherDisplay:10.37 W/m2 SCT
19:20 29.3 °C 20.2 °C 1017.5 hPa Calm     58% 0 mm WeatherDisplay:10.37 W/m2 SCT
19:25 29.2 °C 20.3 °C 1017.5 hPa Calm     59% 0 mm WeatherDisplay:10.37 W/m2 SCT
19:30 29.1 °C 20.2 °C 1017.5 hPa NE 13.2 km/h   59% 0 mm WeatherDisplay:10.37 W/m2 SCT
19:35 28.9 °C 20.4 °C 1017.8 hPa Calm     60% 0 mm WeatherDisplay:10.37 W/m2 SCT
19:40 28.8 °C 20.6 °C 1017.8 hPa Calm     61% 0 mm WeatherDisplay:10.37 W/m2 SCT
19:45 28.7 °C 20.7 °C 1017.8 hPa Calm   1.6 km/h 62% 0 mm WeatherDisplay:10.37 W/m2 SCT
19:50 28.4 °C 20.4 °C 1017.8 hPa NE 13.2 km/h   62% 0 mm WeatherDisplay:10.37 W/m2 SCT
19:55 28.3 °C 20.6 °C 1017.8 hPa NE 13.2 km/h   63% 0 mm WeatherDisplay:10.37 W/m2 SCT
20:00 28.2 °C 20.5 °C 1017.8 hPa NE 13.2 km/h   63% 0 mm WeatherDisplay:10.37 W/m2 SCT
20:05 28.1 °C 20.7 °C 1017.8 hPa NE 13.2 km/h 13.2 km/h 64% 0 mm WeatherDisplay:10.37 W/m2 SCT
20:10 28 °C 21.1 °C 1017.8 hPa NE 13.2 km/h   66% 0 mm WeatherDisplay:10.37 W/m2 SCT
20:15 27.9 °C 20.7 °C 1017.8 hPa NE 13.2 km/h   65% 0 mm WeatherDisplay:10.37 W/m2 SCT
20:20 27.8 °C 20.6 °C 1017.8 hPa NE 13.2 km/h   65% 0 mm WeatherDisplay:10.37 W/m2 SCT
20:25 27.7 °C 20.8 °C 1017.8 hPa NE 13.2 km/h   66% 0 mm WeatherDisplay:10.37 W/m2 SCT
20:30 27.6 °C 20.9 °C 1017.8 hPa NE 13.2 km/h   67% 0 mm WeatherDisplay:10.37 W/m2 SCT
20:35 27.4 °C 20.8 °C 1017.8 hPa NE 13.2 km/h   67% 0 mm WeatherDisplay:10.37 W/m2 SCT
20:40 27.3 °C 20.9 °C 1017.8 hPa NE 13.2 km/h   68% 0 mm WeatherDisplay:10.37 W/m2 SCT
20:46 27.3 °C 20.6 °C 1017.8 hPa NE 13.2 km/h   67% 0 mm WeatherDisplay:10.37 W/m2 SCT
20:51 27.2 °C 20.8 °C 1018.2 hPa NE 13.2 km/h   68% 0 mm WeatherDisplay:10.37 W/m2 SCT
20:56 27.1 °C 20.9 °C 1017.8 hPa NE 13.2 km/h   69% 0 mm WeatherDisplay:10.37 W/m2 SCT
21:01 27 °C 20.6 °C 1018.2 hPa NE 13.2 km/h   68% 0 mm WeatherDisplay:10.37 W/m2 SCT
21:06 26.8 °C 20.7 °C 1018.2 hPa NE 13.2 km/h   69% 0 mm WeatherDisplay:10.37 W/m2 SCT
21:11 26.8 °C 20.6 °C 1017.8 hPa NE 13.2 km/h   69% 0 mm WeatherDisplay:10.37 W/m2 SCT
21:16 26.8 °C 20.6 °C 1017.8 hPa NE 13.2 km/h   69% 0 mm WeatherDisplay:10.37 W/m2 SCT
21:21 26.7 °C 20.6 °C 1017.8 hPa NE 13.2 km/h   69% 0 mm WeatherDisplay:10.37 W/m2 FEW
21:26 26.6 °C 20.7 °C 1017.8 hPa NE 13.2 km/h   70% 0 mm WeatherDisplay:10.37 W/m2 FEW
21:31 26.5 °C 20.8 °C 1018.2 hPa NE 13.2 km/h   71% 0 mm WeatherDisplay:10.37 W/m2 FEW
21:36 26.3 °C 20.9 °C 1018.2 hPa NE 13.2 km/h   72% 0 mm WeatherDisplay:10.37 W/m2 FEW
21:41 26.2 °C 20.8 °C 1018.2 hPa NE 13.2 km/h   72% 0 mm WeatherDisplay:10.37 W/m2 FEW
21:46 26.1 °C 20.9 °C 1018.2 hPa NE 13.2 km/h   73% 0 mm WeatherDisplay:10.37 W/m2 FEW
21:51 26 °C 20.8 °C 1018.2 hPa NE 13.2 km/h   73% 0 mm WeatherDisplay:10.37 W/m2 FEW
21:56 25.9 °C 20.9 °C 1018.2 hPa NE 13.2 km/h   74% 0 mm WeatherDisplay:10.37 W/m2 FEW
22:02 25.8 °C 20.8 °C 1018.2 hPa NE 13.2 km/h   74% 0 mm WeatherDisplay:10.37 W/m2 FEW
22:07 25.7 °C 20.9 °C 1018.2 hPa NE 13.2 km/h   75% 0 mm WeatherDisplay:10.37 W/m2 FEW
22:12 25.6 °C 20.8 °C 1018.2 hPa NE 13.2 km/h   75% 0 mm WeatherDisplay:10.37 W/m2 FEW
22:17 25.6 °C 20.8 °C 1018.2 hPa NE 13.2 km/h   75% 0 mm WeatherDisplay:10.37 W/m2 FEW
22:22 25.5 °C 20.9 °C 1018.2 hPa NE 13.2 km/h   76% 0 mm WeatherDisplay:10.37 W/m2 FEW
22:27 25.4 °C 21.1 °C 1018.2 hPa NE 13.2 km/h   77% 0 mm WeatherDisplay:10.37 W/m2 FEW
22:32 25.3 °C 21.2 °C 1018.5 hPa NE 13.2 km/h   78% 0 mm WeatherDisplay:10.37 W/m2 FEW
22:37 25.2 °C 21.1 °C 1018.2 hPa NE 13.2 km/h   78% 0 mm WeatherDisplay:10.37 W/m2 FEW
22:42 25.2 °C 21.3 °C 1018.5 hPa NE 13.2 km/h   79% 0 mm WeatherDisplay:10.37 W/m2 FEW
22:43 25.2 °C 21.3 °C 1018.5 hPa NE 13.2 km/h   79% 0 mm WeatherDisplay:10.37 W/m2 FEW
22:48 25.1 °C 21.2 °C 1018.5 hPa NE 13.2 km/h   79% 0 mm WeatherDisplay:10.37 W/m2 FEW
22:53 25 °C 21.3 °C 1018.5 hPa NE 13.2 km/h   80% 0 mm WeatherDisplay:10.37 W/m2 FEW
22:58 24.9 °C 21.3 °C 1018.5 hPa NE 13.2 km/h   80% 0 mm WeatherDisplay:10.37 W/m2 FEW
23:03 24.9 °C 21.2 °C 1018.5 hPa NE 13.2 km/h   80% 0 mm WeatherDisplay:10.37 W/m2 FEW
23:08 24.8 °C 21.1 °C 1018.5 hPa NE 13.2 km/h   80% 0 mm WeatherDisplay:10.37 W/m2 FEW
23:13 24.8 °C 21.1 °C 1018.5 hPa NE 13.2 km/h   80% 0 mm WeatherDisplay:10.37 W/m2 FEW
23:18 24.7 °C 21.2 °C 1018.5 hPa NE 13.2 km/h   81% 0 mm WeatherDisplay:10.37 W/m2 FEW
23:23 24.7 °C 21 °C 1018.5 hPa NE 13.2 km/h   80% 0 mm WeatherDisplay:10.37 W/m2 CLR
23:24 24.6 °C 20.9 °C 1018.5 hPa NE 13.2 km/h   80% 0 mm WeatherDisplay:10.37 W/m2 CLR
23:29 24.6 °C 21.1 °C 1018.5 hPa NE 13.2 km/h   81% 0 mm WeatherDisplay:10.37 W/m2 CLR
23:34 24.6 °C 21.1 °C 1018.5 hPa NE 13.2 km/h   81% 0 mm WeatherDisplay:10.37 W/m2 CLR
23:39 24.5 °C 21.2 °C 1018.5 hPa NE 13.2 km/h   82% 0 mm WeatherDisplay:10.37 W/m2 CLR
23:44 24.5 °C 21.2 °C 1018.5 hPa NE 13.2 km/h   82% 0 mm WeatherDisplay:10.37 W/m2 CLR
23:49 24.4 °C 21.3 °C 1018.5 hPa NE 13.2 km/h   83% 0 mm WeatherDisplay:10.37 W/m2 CLR
23:54 24.3 °C 21.2 °C 1018.8 hPa NE 13.2 km/h   83% 0 mm WeatherDisplay:10.37 W/m2 CLR
23:59 24.3 °C 21.2 °C 1018.8 hPa NE 13.2 km/h   83% 0 mm WeatherDisplay:10.37 W/m2 CLR
Piedmont Bend
Compliments of Weather Underground - 4 mb